Regional Weather Roundup
Issued by NWS

Home | Current Version | Previous Version | Text Only | Print | Product List | Glossary On
Versions: 1 2 3 4 5 6 7 8 9 10 11 12 13 14 15 16 17 18 19 20 21 22 23 24 25 26 27 28 29 30 31 32 33 34 35 36 37 38 39 40 41 42 43 44 45 46 47 48 49 50
000
ASUS43 KLSX 180507
RWRMO

WEATHER SUMMARY FOR MISSOURI
NATIONAL WEATHER SERVICE SPRINGFIELD MO
1100 PM CST FRI NOV 17 2017

NOTE: "FAIR" INDICATES FEW OR NO CLOUDS BELOW 12,000 FEET WITH NO
       SIGNIFICANT WEATHER AND/OR OBSTRUCTIONS TO VISIBILITY.
       CURRENT SKY AND/OR WEATHER CONDITIONS ARE NOT AVAILABLE FOR
       CHILLICOTHE AND FARMINGTON.

MOZ001>031-035>038-043-044-053-054-180600-
...NORTHERN AND WESTERN MISSOURI...

CITY           SKY/WX    TMP DP  RH WIND       PRES   REMARKS
KANSAS CTY INT CLOUDY    58  57  97 SE6       29.43F FOG
KANSAS C DTWN  CLOUDY    60  56  86 SE5       29.42F
LEE`S SUMMIT   MOCLDY    61  60  97 SE3       29.44F
ST JOSEPH      FOG       54  54 100 N9        29.46F VSB 1/4
CHILLICOTHE      N/A     55  55 100 N3        29.47F
KIRKSVILLE     CLOUDY    57  56  96 SE3       29.49F

$$
MOZ066>068-077>081-088>096-101>105-180600-
...SOUTHWEST MISSOURI...

CITY           SKY/WX    TMP DP  RH WIND       PRES   REMARKS
SPRINGFIELD    MOCLDY    66  62  87 S14       29.55F
JOPLIN         PTCLDY    71  64  78 S23G38    29.50F
BRANSON        PTCLDY    68  61  77 S9G16     29.60F

$$
MOZ032>034-039>042-045>050-055>058-069>072-180600-
...CENTRAL MISSOURI...

CITY           SKY/WX    TMP DP  RH WIND       PRES   REMARKS
COLUMBIA       MOCLDY    65  60  84 S14       29.50F
JEFFERSON CITY PTCLDY    68  60  75 S9        29.51F
ROLLA          MOCLDY    66  60  81 S18G29    29.56F
SEDALIA        MOCLDY    65  62  90 S15       29.48F
WHITEMAN AFB   MOCLDY    64  61  88 S12       29.42F
WARRENSBURG    CLOUDY    61  57  88 S5        29.45F
OSAGE BEACH    CLEAR     65  60  84 S10       29.54F

$$
MOZ051-052-059>065-180600-
...EAST CENTRAL MISSOURI...

CITY           SKY/WX    TMP DP  RH WIND       PRES   REMARKS
ST LOUIS INTL  MOCLDY    58  53  84 S8        29.58F
SPIRIT OF STL  CLOUDY    63  58  83 VRB3      29.57F
ST CHARLES     CLOUDY    58  53  84 SE7       29.57F

$$
MOZ072>076-082>087-097>100-106>115-180600-
...SOUTH CENTRAL AND SOUTHEAST MISSOURI...

CITY           SKY/WX    TMP DP  RH WIND       PRES   REMARKS
CAPE GIRARDEAU CLOUDY    64  54  69 S16G29    29.69F
FARMINGTON     MOCLDY    64  59  83 S17       29.62F
POPLAR BLUFF   CLOUDY    67  58  72 S14       29.67F
WEST PLAINS    CLEAR     66  61  84 S12       29.65F

$$



USA.gov is the U.S. government's official web portal to all federal, state and local government web resources and services.